Horace

(8 December 65 BC – 27 November 8 BC / Italy)

Stats

» Click to list general statistics » OR, select a date :

General Statistics

Visitors of the poet

Number of visitors of the poet’s mainpage in PoemHunter.Com

Attention : Numbers in this table does not indicate the total hits of poems of the poet, but indicates the hits of the poet’s main page.

Date Hits
04/26/2015 Sunday 189
54%
04/25/2015 Saturday 148
42%
04/24/2015 Friday 196
56%
04/23/2015 Thursday 197
56%
04/22/2015 Wednesday 124
35%
04/21/2015 Tuesday 103
29%
04/20/2015 Monday 92
26%
04/19/2015 Sunday 128
36%
04/18/2015 Saturday 64
18%
04/17/2015 Friday 143
40%
04/16/2015 Thursday 349
100%
04/15/2015 Wednesday 126
36%
04/14/2015 Tuesday 94
26%
04/13/2015 Monday 157
44%
04/12/2015 Sunday 128
36%
04/11/2015 Saturday 129
36%
04/10/2015 Friday 71
20%
04/09/2015 Thursday 68
19%
04/08/2015 Wednesday 106
30%
04/07/2015 Tuesday 162
46%

Reader rating & num.of MyPoemList’s

Click the captions of columns to change the order.

# Poem Title Submit Date Reader Rating Num.of MyPoemList’s
Rating Num.R.
1 Bki:I The Dedication: To Maecenas 05/02/2012 5.7 29 0
2 Bki:Ii To Augustus 05/02/2012 5.4 31 0
3 Bki:Iii Virgil: Off To Greece 05/02/2012 5.5 29 0
4 Bki:Iv Spring 05/02/2012 5.5 29 0
5 Bki:Ix Winter 05/02/2012 5.4 29 0
6 Bki:V Treacherous Girl 05/02/2012 5.2 37 0
7 Bki:Vi A Tribute To Agrippa 05/02/2012 5.5 30 0
8 Bki:Vii Tibur 05/02/2012 5.5 30 0
9 Bki:Viii: To Lydia: Stop Ruining Sybaris! 05/02/2012 5.5 30 0
10 Bki:X To Mercury 05/02/2012 5.4 27 0
11 Bki:Xi Carpe Diem 05/02/2012 5.5 28 3
12 Bki:Xii Praising Augustus 05/02/2012 5.7 28 0
13 Bki:Xiii His Jealousy 05/02/2012 5.4 23 0
14 Bki:Xiv The Ship Of State 05/02/2012 5.4 26 0
15 Bki:Xix Glycera’s Beauty 05/02/2012 6.0 27 0
16 Bki:Xv Nereus’ Prophecy Of Troy 05/02/2012 5.7 29 0
17 Bki:Xvi He Repents 05/02/2012 5.3 26 0
18 Bki:Xvii The Delights Of The Country 05/02/2012 5.5 30 0
19 Bki:Xviii Wine 05/02/2012 5.5 31 0
20 Bki:Xx To Maecenas 05/02/2012 5.4 29 0
21 Bki:Xxi Hymn To Diana 05/02/2012 5.2 28 0
22 Bki:Xxii Singing Of Lalage (Integer Vitae) 05/02/2012 5.5 30 0
23 Bki:Xxiii Chloë, Don’t Run. 05/02/2012 5.5 30 0
24 Bki:Xxiv A Lament For Quintilius 05/02/2012 5.6 28 0
25 Bki:Xxix Off To The Wars 05/02/2012 5.5 29 0
26 Bki:Xxv A Prophecy Of Age 05/02/2012 5.2 18 0
27 Bki:Xxvi A Garland For Lamia 05/02/2012 5.7 18 0
28 Bki:Xxvii Entanglement 05/02/2012 5.5 20 0
29 Bki:Xxviii Three Handfuls Of Earth 05/02/2012 5.5 20 0
30 Bki:Xxx Ode To Venus 05/02/2012 5.5 20 0
31 Bki:Xxxi A Prayer To Apollo 05/02/2012 5.5 20 0
32 Bki:Xxxii To The Lyre 05/02/2012 5.5 20 0
33 Bki:Xxxiii Tibullus, Don’t Grieve 05/02/2012 5.4 19 0
34 Bki:Xxxiv Fortune’s Changes 05/02/2012 5.4 19 0
35 Bki:Xxxv To Fortune 05/02/2012 5.7 19 0
36 Bki:Xxxvi Numida’s Back Again 05/02/2012 5.4 19 0
37 Bki:Xxxvii Cleopatra 05/02/2012 5.5 21 0
38 Bki:Xxxviii The Simple Myrtle 05/02/2012 5.5 20 0
39 Bkii:I To Pollio, Writing His History Of The Civil Wars 05/02/2012 4.9 18 0
40 Bkii:Ii Money 05/02/2012 5.5 20 0
41 Bkii:Iii One Ending 05/02/2012 5.5 22 0
42 Bkii:Iv Loving A Servant Girl 05/02/2012 5.5 20 0
43 Bkii:Ix Stop Weeping 05/02/2012 5.4 21 0
44 Bkii:V Be Patient 05/02/2012 5.7 19 0
45 Bkii:Vi Tibur And Tarentum 05/02/2012 5.5 20 0
46 Bkii:Vii A Friend Home From The Wars 05/02/2012 5.9 17 0
47 Bkii:Viii Faithless Barine 05/02/2012 5.7 21 0
48 Bkii:X The Golden Mean 05/02/2012 5.7 17 0
49 Bkii:Xi Don’t Ask 05/02/2012 5.1 18 1
50 Bkii:Xii Terentia’s Singing 05/02/2012 5.3 20 0
51 Bkii:Xiii Nearly, Tree 05/02/2012 5.5 20 0
52 Bkii:Xiv Eheu Fugaces 05/02/2012 5.9 18 0
53 Bkii:Xix To Bacchus 05/02/2012 5.6 17 0
54 Bkii:Xv Excess 05/02/2012 5.5 19 0
55 Bkii:Xvi Contentment 05/02/2012 5.6 17 0
56 Bkii:Xvii We’ll Go Together 05/02/2012 5.5 19 0
57 Bkii:Xviii Vain Riches 05/02/2012 5.5 20 0
58 Bkii:Xx Poetic Immortality 05/02/2012 5.4 19 0
59 Bkiii:I Odi Profanum 05/02/2012 5.5 20 0
60 Bkiii:Ii Dulce Et Decorum Est 05/02/2012 4.9 20 0
61 Bkiii:Iii Stand Firm 05/02/2012 5.7 21 0
62 Bkiii:Iv Temper Power With Wisdom 05/02/2012 5.9 22 0
63 Bkiii:Ix A Dialogue 05/02/2012 5.5 19 0
64 Bkiii:V No Surrender 05/02/2012 5.3 17 0
65 Bkiii:Vi Moral Decadence 05/02/2012 5.5 20 0
66 Bkiii:Vii Be True 05/02/2012 5.5 20 0
67 Bkiii:Viii Celebration 05/02/2012 5.1 17 0
68 Bkiii:X Cruel One 05/02/2012 5.5 20 0
69 Bkiii:Xi Remember The Danaids 05/02/2012 5.5 20 0
70 Bkiii:Xii Neobule, To Herself 05/02/2012 5.7 19 0
71 Bkiii:Xiii O Fons Bandusiae 05/02/2012 5.7 18 0
72 Bkiii:Xiv Augustus Returns 05/02/2012 5.7 19 0
73 Bkiii:Xix Let’s Drink 05/02/2012 5.1 18 0
74 Bkiii:Xv Too Old 05/02/2012 5.7 19 0
75 Bkiii:Xvi Just Enough 05/02/2012 5.1 18 0
76 Bkiii:Xvii The Approaching Storm 05/02/2012 5.5 20 0
77 Bkiii:Xviii To Faunus 05/02/2012 5.7 18 0
78 Bkiii:Xx The Conflict 05/02/2012 5.5 20 0
79 Bkiii:Xxi Praise Of Wine 05/02/2012 5.2 16 0
80 Bkiii:Xxii To Diana 05/02/2012 5.5 20 0
81 Bkiii:Xxiii Pure Hands 05/02/2012 5.5 19 0
82 Bkiii:Xxiv Destructive Wealth 05/02/2012 5.5 19 0
83 Bkiii:Xxix Fortune 05/02/2012 5.5 20 0
84 Bkiii:Xxv Bacchanalian Song 05/02/2012 5.5 20 0
85 Bkiii:Xxvi Enough 05/02/2012 5.5 20 0
86 Bkiii:Xxvii Europa 05/02/2012 5.4 18 0
87 Bkiii:Xxviii For Neptune 05/02/2012 4.9 17 0
88 Bkiii:Xxx Aere Perennius 05/02/2012 5.7 18 1
89 Bkiv:I Venus, Be Merciful 05/02/2012 5.6 17 0
90 Bkiv:Ii Augustus’s Return 05/02/2012 5.4 19 0
91 Bkiv:Iii To The Muse 05/02/2012 5.4 19 0
92 Bkiv:Iv Drusus And The Claudians 05/02/2012 5.8 21 0
93 Bkiv:Ix Lollius 05/02/2012 5.5 20 0
94 Bkiv:V To Augustus 05/02/2012 5.1 18 0
95 Bkiv:Vi To Apollo 05/02/2012 5.5 20 0
96 Bkiv:Vii Diffugere Nives 05/02/2012 5.7 19 0
97 Bkiv:Viii Poetry 05/02/2012 5.7 17 0
98 Bkiv:X Age 05/02/2012 5.5 19 0
99 Bkiv:Xi Maecenas’ Birthday 05/02/2012 5.8 17 0
100 Bkiv:Xii Spring 05/02/2012 5.7 18 0
101 Bkiv:Xiii You Too, Lyce 05/02/2012 5.9 19 0
102 Bkiv:Xiv Drusus And Tiberius 05/02/2012 5.3 19 0
103 Bkiv:Xv To Augustus 05/02/2012 5.5 20 0
104 Book 1, No.5 ("To Pyrrha") 01/20/2003 5.8 11 2
105 Regulus 12/08/2003 -- 0 1
[Hata Bildir]